Tracking 19794 objects as of 22-Jul-2019
HD Live streaming from Space Station
objects crossing your sky now

SSC

Track SSC now!
10-day predictions
SSC is classified as:


NORAD ID: 13874
Int'l Code: 1983-008H
Perigee: 378.3 km
Apogee: 1,738.8 km
Inclination: 63.3 °
Period: 106.2 minutes
Semi major axis: 7429 km
RCS: Unknown
Launch date: February 9, 1983
Source: United States (US)
Launch site: AIR FORCE WESTERN TEST RANGE (AFWTR)
aabbcc
Your satellite tracking list
Your tracking list is empty




NASA's NSSDC Master Catalog

Two Line Element Set (TLE):
1 13874U 83008H   19202.82622876 +.00000664 +00000-0 +59991-4 0  9990
2 13874 063.2860 348.0412 0915613 088.2071 282.3454 13.55677763007255
Source of the keplerian elements: McCants